Regional Weather Roundup
Issued by NWS

Home | Current Version | Previous Version | Graphics & Text | Print | Product List | Glossary On
Versions: 1 2 3 4 5 6 7 8 9 10 11 12 13 14 15 16 17 18 19 20 21 22 23 24 25 26 27 28 29 30 31 32 33 34 35 36 37 38 39 40 41 42 43 44 45 46 47 48 49 50
000
ASUS43 KLOT 300812
RWRIL

ILLINOIS REGIONAL WEATHER ROUNDUP
NATIONAL WEATHER SERVICE CHICAGO/ROMEOVILLE IL
300 AM CDT THU JUL 30 2015

NOTE: "FAIR" INDICATES FEW OR NO CLOUDS BELOW 12,000 FEET WITH NO
SIGNIFICANT WEATHER AND/OR OBSTRUCTIONS TO VISIBILITY.

* THESE STATIONS ARE NOT UNDER NWS QUALITY CONTROL. THEY ALSO MAY NOT
  REPORT WEATHER SUCH AS PRECIPITATION OR FOG.

ILZ001-002-007-009-015-016-024-300900-
NORTHWEST ILLINOIS

CITY           SKY/WX    TMP DP  RH WIND       PRES   REMARKS
MOLINE         CLEAR     64  59  83 SW5       30.08S
STERLING*      CLEAR     63  57  82 W7        30.06S
SAVANNA*       CLEAR     65  58  79 NW3       30.06S
$$

ILZ003-004-008-010-011-017-018-300900-
NORTH CENTRAL ILLINOIS

CITY           SKY/WX    TMP DP  RH WIND       PRES   REMARKS
ROCKFORD       CLEAR     65  58  78 W5        30.05S
FREEPORT*      CLEAR     63  58  84 SW7       30.06S
ROCHELLE*      CLEAR     60  58  94 CALM      30.06S
DE KALB*       CLEAR     66  59  78 W10       30.05S
PERU*          CLEAR     66  59  79 W8        30.07S
$$

ILZ005-006-012>014-019>023-300900-
NORTHEAST ILLINOIS

CITY           SKY/WX    TMP DP  RH WIND       PRES   REMARKS
CHICAGO-OHARE  CLEAR     69  57  65 W8        30.01S
CHICAGO-MIDWAY CLEAR     72  56  57 W9        30.01S
AURORA         CLEAR     63  57  81 W8        30.04S
LANSING*       CLEAR     66  55  68 W6        30.02S
JOLIET*        CLEAR     66  60  80 W3        30.04S
WAUKEGAN       CLEAR     68  55  63 VRB3      29.99S
DUPAGE AIRPORT CLEAR     66  57  72 W7        30.02S
KANKAKEE*      CLEAR     64  61  89 W7        30.05S
WHEELING       CLEAR     70  55  59 W7        30.02S
MORRIS*        CLEAR     64  59  84 W7        30.04S
ROMEOVILLE*    CLEAR     63  58  83 W6        30.04S
NORTHERLY ISL    N/A     72  56  57 W10         N/A
$$

LMZ740>746-300900-
SOUTHERN LAKE MICHIGAN

STATION/POSITION SKY/WX   TEMP    WIND        PRES    VSBY  WAVE
                          AIR SEA DIR/SP/G                  HT/PER
                          (F)     (DEG/KT/KT) (MB)    (MI)  (FT/S)
HARRISON CRIB              74     270/ 14/ 16   N/A
BURNHAM HARBOR             72     270/  5/ 11   N/A
BURNS HARBOR               73     270/ 12/ 14 1016.6F
MICHIGAN CITY              73     230/ 13/ 14   N/A
MICHIGAN CITY 6N           74 73  280/ 12/ 16   N/A           3/ 4
ST. JOSEPH                 74 74  320/ 14/ 16   N/A           3/ 4
$$

ILZ025>027-034>036-040-047-049-050-058-095>099-300900-
WEST-CENTRAL ILLINOIS

CITY           SKY/WX    TMP DP  RH WIND       PRES   REMARKS
QUINCY         CLEAR     68  60  75 W5        30.13S
GALESBURG*     CLEAR     63  60  88 CALM      30.11S
MACOMB*        CLEAR     64  61  91 W5        30.13S
JACKSONVILLE*  CLEAR     66  62  86 W6        30.12S
PITTSFIELD*    CLEAR     67  62  82 CALM      30.14F
$$

ILZ028>032-037-038-041>044-048-051>054-059>061-300900-
CENTRAL ILLINOIS

CITY           SKY/WX    TMP DP  RH WIND       PRES   REMARKS
PONTIAC        CLEAR     64  62  93 W6        30.08S
BLOOMINGTON    CLEAR     68  62  80 W9        30.10S
DECATUR        CLEAR     71  59  65 NW10      30.09S
PEORIA         CLEAR     68  60  75 W5        30.10R
LACON*         CLEAR     67  59  75 CALM      30.07S
LINCOLN*       CLEAR     67  61  79 NW5       30.09F
SPRINGFIELD    CLEAR     63  60  90 W5        30.11S
TAYLORVILLE    CLEAR     63  61  94 W5        30.10S
$$

ILZ033-039-045-046-055>057-062-063-300900-
EAST-CENTRAL ILLINOIS

CITY           SKY/WX    TMP DP  RH WIND       PRES   REMARKS
CHAMPAIGN      CLEAR     64  60  87 NW5       30.08S
DANVILLE*      CLEAR     65  60  85 W7        30.04S
RANTOUL*       CLEAR     65  62  91 W6        30.08R
MATTOON        CLEAR     64  58  80 NW8       30.08S
PARIS*         CLEAR     64  60  89 W5        30.08R
$$

ILZ079-100>102-300900-
SOUTHWEST ILLINOIS

CITY           SKY/WX    TMP DP  RH WIND       PRES   REMARKS
ALTON          CLEAR     69  59  71 NW6       30.11S
BELLEVILLE     CLEAR     69  62  77 NW3       30.09F
CAHOKIA*       CLEAR     67  62  84 CALM      30.11S
SPARTA*        CLEAR     70  61  72 N7        30.11S
$$

ILZ064>066-069>071-074>076-080>082-084>086-088>090-092>094-300900-
SOUTH-CENTRAL ILLINOIS

CITY           SKY/WX    TMP DP  RH WIND       PRES   REMARKS
CARBONDALE     CLEAR     69  65  86 CALM      30.09S
CAIRO*         CLEAR     74  65  74 N8        30.08R
EFFINGHAM*     CLEAR     65  59  81 CALM      30.10S
MARION         CLEAR     68  64  88 CALM      30.10S
MT. VERNON     CLEAR     64  57  77 CALM      30.10S
CENTRALIA*     CLEAR     65  59  79 NW5       30.10S
SALEM*         CLEAR     66  61  83 CALM      30.10S
METROPOLIS*    CLEAR     74  68  82 N6        30.08R
$$

ILZ067-068-072-073-078-083-087-091-300900-
SOUTHEAST ILLINOIS

CITY           SKY/WX    TMP DP  RH WIND       PRES   REMARKS
LAWRENCEVILLE  CLEAR     66  62  87 NW6       30.07S
FLORA*         CLEAR     66  59  79 NW5       30.09S
FAIRFIELD*     CLEAR     67  60  78 N3        30.08R
HARRISBURG*    CLEAR     71  65  82 CALM      30.09S
ROBINSON*      CLEAR     65  60  83 CALM      30.08S
CARMI*         CLEAR     68  61  79 CALM      30.07S
$$

ABBREVIATIONS USED IN REMARKS
   TC - TEMPERATURE IN CELSIUS
  WCI - WIND CHILL INDEX
   HX - HEAT INDEX
  VSB - VISIBILITY
$$



USA.gov is the U.S. government's official web portal to all federal, state and local government web resources and services.